Voltar ao catálogo

STARLINK-4515

AtivoComunicaçõesVLEO
NORAD 53397·PAYLOAD·🇺🇸 United States

Lançado Aug 10, 2022 de Cape Canaveral Space Force Station

Loading…

Próximas Passagens (próximas 24 horas)

TLE

AtualizadoSource: CelesTrak SupGP

Época: Sep 14, 2026, 21:47 UTC

1 53397C 22097K   26257.90812500 -.00061232  00000+0 -17517-2 0  2579
2 53397  53.1604 348.2305 0001110  82.8640 192.0267 15.35433169    12

Acompanhe STARLINK-4515 em tempo real com AllMySat

Download on the App Store